This demonstration page uses our WeatherBlox Daily Observations layout. Learn more.

38.89511, -77.03637

Hourly Observations for September 17, 2015

Temp ( °F °C ) Dew Point ( °F °C ) Humidity (%) Winds ( mph kmh ) Pressure ( in mb ) Visibility ( mi km ) Precip ( " mm )
12:52 am 00:52 Mostly Clear 69 20.6 60 15.6 73 73 SSW 3 6 30.24 1024 10 16.0934 0 0
1:52 am 01:52 Clear 69 20.6 60 15.6 73 73 Calm 30.23 1024 10 16.0934 0 0
2:52 am 02:52 Clear 68 20 60 15.6 76 76 SW 3 6 30.22 1023 10 16.0934 0 0
3:52 am 03:52 Clear 66 18.9 60 15.6 81 81 SW 3 6 30.21 1023 10 16.0934 0 0
4:52 am 04:52 Clear 65 18.3 60 15.6 84 84 Calm 30.21 1023 10 16.0934 0 0
5:52 am 05:52 Mostly Clear 64 17.8 61 16.1 90 90 SW 3 6 30.21 1023 10 16.0934 0 0
6:24 am 06:24 Partly Cloudy 64 18 61 16 88 88 SW 3 6 30.21 1023 10 16.0934 0 0
6:52 am 06:52 Partly Cloudy 63 17.2 60 15.6 90 90 SW 3 6 30.22 1023 10 16.0934 0 0
7:52 am 07:52 Partly Cloudy 66 18.9 61 16.1 84 84 Calm 30.22 1023 10 16.0934 0 0
8:52 am 08:52 Partly Cloudy 69 20.6 62 16.7 78 78 Calm 30.21 1023 10 16.0934 0 0
9:52 am 09:52 Partly Cloudy 72 22.2 62 16.7 71 71 E 3 6 30.22 1023 10 16.0934 0 0
10:52 am 10:52 Mostly Sunny 76 24.4 62 16.7 62 62 ESE 3 6 30.2 1023 10 16.0934 0 0
11:52 am 11:52 Partly Cloudy 81 27.2 57 13.9 44 44 S 5 7 30.19 1022 10 16.0934 0 0
12:52 pm 12:52 Partly Cloudy 83 28.3 56 13.3 40 40 S 8 13 30.17 1022 10 16.0934 0 0
1:52 pm 13:52 Partly Cloudy 84 28.9 54 12.2 36 36 S 7 11 30.15 1021 10 16.0934 0 0
2:52 pm 14:52 Mostly Sunny 85 29.4 52 11.1 32 32 SSE 6 9 30.12 1020 10 16.0934 0 0
3:52 pm 15:52 Mostly Sunny 85 29.4 54 12.2 35 35 SSW 6 9 30.1 1019 10 16.0934 0 0
4:52 pm 16:52 Mostly Sunny 84 28.9 58 14.4 41 41 S 9 15 30.08 1019 10 16.0934 0 0
5:52 pm 17:52 Mostly Sunny 83 28.3 59 15 44 44 S 10 17 30.07 1018 10 16.0934 0 0
6:52 pm 18:52 Mostly Sunny 80 26.7 59 15 49 49 S 9 15 30.07 1018 10 16.0934 0 0
7:52 pm 19:52 Mostly Clear 77 25 58 14.4 52 52 S 8 13 30.07 1018 10 16.0934 0 0
8:52 pm 20:52 Clear 75 23.9 58 14.4 55 55 SSE 8 13 30.08 1019 10 16.0934 0 0
9:52 pm 21:52 Clear 72 22.2 59 15 64 64 SSW 8 13 30.09 1019 10 16.0934 0 0
10:52 pm 22:52 Clear 72 22.2 59 15 64 64 SSW 6 9 30.08 1019 10 16.0934 0 0
11:52 pm 23:52 Clear 71 21.7 60 15.6 68 68 SSW 8 13 30.09 1019 10 16.0934 0 0

Powered by AerisWeather